Malin Head, Ireland

7:49 PM GMT on December 15, 2018 (GMT +0000)
Malin Head

Weather History for 03980 - June, 2014

Change the Weather History Date:

Saturday, June 21, 2014

  Actual Average Record
Temperature  
Mean Temperature 58 °F -  
Max Temperature 61 °F 60 °F - ()
Min Temperature 54 °F 52 °F - ()
Degree Days  
Heating Degree Days 8    
Growing Degree Days 8 (Base 50)    
Moisture  
Dew Point 51 °F    
Average Humidity 72    
Maximum Humidity 89    
Minimum Humidity 60    
Precipitation  
Precipitation 0.00 in 0.09 in - ()
Sea Level Pressure  
Sea Level Pressure 30.22 in    
Wind  
Wind Speed 12 mph ()    
Max Wind Speed 20 mph    
Max Gust Speed -    
Visibility 14.5 miles    
Events Rain    
T = Trace of Precipitation, MM = Missing Value Source: Averaged Metar Reports

Daily Weather History Graph

Daily Weather History Graph

Search for Another Location

Airport or City:

Astronomy

Jun. 21, 2014 Rise Set
Actual Time 4:47 AM IST 10:15 PM IST
Civil Twilight 3:47 AM IST 11:14 PM IST
Nautical Twilight 2:03 AM IST 12:58 AM IST
Astronomical Twilight Sun does not rise Sun does not rise
Moon 1:48 AM IST (6/21) 3:49 PM IST (6/21)
Length of Visible Light 19h 27m
Length of Day
17h 27m
Waning Crescent, 32% of the Moon is Illuminated
Jun 21
Waning Crescent
Jun 27
New
Jul 5
First Quarter
Jul 12
Full
Jul 19
Last Quarter

Hourly Weather History & Observations

Time (IST) Temp. Dew Point Humidity Pressure Visibility Wind Dir Wind Speed Gust Speed Precip Events Conditions
12:00 AM 56 °F 53 °F 86% 30.24 in 12 mi NW 11.2 mph - - Rain Drizzle
1:00 AM 55 °F 52 °F 87% 30.23 in 7 mi NNW 8.9 mph - -   Partly Cloudy
2:00 AM 55 °F 53 °F 89% 30.22 in 7 mi NNW 8.9 mph - -   Mostly Cloudy
3:00 AM 57 °F 53 °F 83% 30.22 in 13 mi NW 8.9 mph - -   Mostly Cloudy
4:00 AM 58 °F 54 °F 83% 30.21 in 9 mi NW 17.9 mph - - Rain Rain
5:00 AM 56 °F 52 °F 80% 30.20 in 8 mi NW 15.7 mph - -   Mostly Cloudy
6:00 AM 56 °F 50 °F 73% 30.21 in 14 mi NW 15.7 mph - -   Mostly Cloudy
7:00 AM 58 °F 50 °F 66% 30.20 in 25 mi NW 17.9 mph - -   Partly Cloudy
8:00 AM 58 °F 49 °F 65% 30.21 in 19 mi NNW 13.4 mph - -   Mostly Cloudy
9:00 AM 59 °F 49 °F 62% 30.21 in 22 mi NNW 15.7 mph - -   Mostly Cloudy
10:00 AM 60 °F 50 °F 60% 30.21 in 28 mi NNW 15.7 mph - -   Mostly Cloudy
11:00 AM 60 °F 51 °F 65% 30.22 in 18 mi North 15.7 mph - -   Mostly Cloudy
12:00 PM 60 °F 52 °F 67% 30.22 in 14 mi NNW 11.2 mph - -  
1:00 PM 61 °F 51 °F 62% 30.23 in 19 mi NNW 11.2 mph - -   Scattered Clouds
2:00 PM 60 °F 52 °F 66% 30.23 in 17 mi NNW 13.4 mph - -   Partly Cloudy
3:00 PM 61 °F 52 °F 63% 30.24 in 14 mi North 13.4 mph - -   Scattered Clouds
4:00 PM 61 °F 51 °F 60% 30.24 in 17 mi NNW 13.4 mph - -  
5:00 PM 60 °F 51 °F 64% 30.23 in 16 mi NNW 13.4 mph - -   Partly Cloudy
6:00 PM 58 °F 50 °F 68% 30.23 in 16 mi NNW 13.4 mph - -   Mostly Cloudy
7:00 PM 59 °F 51 °F 67% 30.23 in 18 mi NNW 20.1 mph - - Rain Drizzle
8:00 PM 58 °F 51 °F 70% 30.24 in 19 mi NNW 15.7 mph - -   Mostly Cloudy
9:00 PM 57 °F 52 °F 76% 30.23 in 19 mi North 13.4 mph - -   Mostly Cloudy
10:00 PM 56 °F 51 °F 78% 30.23 in 25 mi NNW 13.4 mph - -   Mostly Cloudy
11:00 PM 55 °F 51 °F 82% 30.24 in 22 mi North 13.4 mph - -   Scattered Clouds